Regional Weather Roundup
Issued by NWS

Home | Current Version | Previous Version | Text Only | Print | Product List | Glossary On
Versions: 1 2 3 4 5 6 7 8 9 10 11 12 13 14 15 16 17 18 19 20 21 22 23 24 25 26 27 28 29 30 31 32 33 34 35 36 37 38 39 40 41 42 43 44 45 46 47 48 49 50
123
ASUS43 KDTX 250301
RWRMI
MICHIGAN HOURLY REGIONAL WEATHER ROUNDUP
NATIONAL WEATHER SERVICE DETROIT/PONTIAC MI
1100 PM EDT SAT JUN 24 2017

NOTE: "FAIR" INDICATES FEW OR NO CLOUDS BELOW 12,000 FEET WITH NO
SIGNIFICANT WEATHER AND/OR OBSTRUCTION TO VISIBILITY.

MIZ047>049-052>055-059>063-066>070-074>076-081>083-250400-
SOUTHEAST LOWER MICHIGAN

CITY           SKY/WX    TMP DP  RH WIND       PRES   REMARKS
ADRIAN         CLEAR     62  48  60 W3        30.04R
ALMA           PTCLDY    58  47  68 SW6       29.98R
ANN ARBOR      CLEAR     53  50  89 SW3       30.01R
BAD AXE        PTCLDY    59  55  85 W3        29.95R
CARO           CLEAR     56  56  99 CALM      29.96R
DETROIT CITY   CLEAR     67  47  48 W9        29.99R
DETROIT        PTCLDY    65  49  56 W10       30.02R
FLINT          CLEAR     62  46  55 W9        29.98R
GROSSE ILE     CLEAR     65  50  58 W6        30.00R
HILLSDALE      CLEAR     54  46  76 SW3       30.03R
HOWELL         MOCLDY    60  46  59 SW5       30.00S

CITY           SKY/WX    TMP DP  RH WIND       PRES   REMARKS
JACKSON        CLEAR     60  48  64 SW5       30.02R
LAMBERTVILLE   CLEAR     62  51  65 CALM      30.03R
LANSING        CLOUDY    63  47  55 W7        30.00R
LAPEER         FAIR      62  50  65 W5        29.98R
MASON          CLOUDY    61  51  70 CALM      30.01R
MONROE         CLEAR     61  51  69 W5        30.01R
MT. CLEMENS    PTCLDY    65  50  57 W7        29.96R
PONTIAC        PTCLDY    63  49  60 W7        29.98R
PORT HOPE        N/A     62  55  77 W7        29.92R
PORT HURON     CLEAR     57  54  88 CALM      29.97R
TRI CITIES     CLEAR     60  54  80 W7        29.97R
MIDLAND        FAIR      57  52  82 CALM      29.96R
TROY           CLEAR     66  44  44 SW6       30.01R
SAGINAW HB     CLEAR     59  54  82 SW7       29.96R
$$
MIZ043>046-050>051-056>058-064>065-071>073-077>080-250400-
SOUTHWEST LOWER MICHIGAN

CITY           SKY/WX    TMP DP  RH WIND       PRES   REMARKS
BATTLE CREEK   PTCLDY    58  49  72 W5        30.03R
BENTON HARBOR  CLEAR     64  50  60 W7        30.04R
BIG RAPIDS     PTCLDY    58  46  66 SW5       29.97R
COLDWATER      CLEAR     59  49  68 SW5       30.04R
FREMONT        FAIR      57  49  76 SW5       29.98S
HOLLAND        CLEAR     60  52  74 SW3       30.02R
GRAND RAPIDS   MOCLDY    63  50  62 W8        30.00R
IONIA          CLOUDY    62  46  55 W7        30.00R
KALAMAZOO      PTCLDY    62  46  55 W7        30.04R
LUDINGTON      MOCLDY    58  52  78 CALM      29.95S
MARSHALL       PTCLDY    58  47  69 CALM      30.03R
MOUNT PLEASANT PTCLDY    58  50  74 CALM      29.97R
MUSKEGON       PTCLDY    62  51  67 W6        29.99R
SOUTH HAVEN    CLEAR     62  54  73 CALM      30.04R
$$
MIZ016>042-250400-
NORTHERN LOWER MICHIGAN

CITY           SKY/WX    TMP DP  RH WIND       PRES   REMARKS
ALPENA         RAIN      56  56 100 CALM      29.94R FOG
BELLAIRE       MOCLDY    58  55  88 CALM      29.94R
CADILLAC       CLEAR     54  49  84 CALM      29.95F
CHARLEVOIX     CLOUDY    58  57  97 W3        29.96R
FRANKFORT      MOCLDY    55  52  90 CALM      29.95R
GAYLORD        PTCLDY    56  53  90 SW5       29.94S
GRAYLING       CLEAR     53  52  98 SW3       29.95S FOG
HARBOR SPRINGS CLOUDY    57  57 100 CALM      29.93R
HOUGHTON LAKE  CLEAR     60  54  80 W9        29.96R
MANISTEE       CLEAR     54  53  97 CALM      29.94S
OSCODA         CLOUDY    57  56  95 SW3       29.92S
PELLSTON       CLOUDY    58  53  84 W5        29.93R
ROGERS CITY    CLOUDY    58  55  88 SW5       29.93R
TRAVERSE CITY  MOCLDY    59  54  83 SW3       29.93R
$$
MIZ007>008-015-250400-
EASTERN UPPER MICHIGAN

CITY           SKY/WX    TMP DP  RH WIND       PRES   REMARKS
KINROSS        CLOUDY    54  46  74 NW6       29.90S
MACKINAC ISLAN CLOUDY    57  49  75 NW3       29.91R
NEWBERRY       CLOUDY    53  52  97 CALM      29.92R
S. S. MARIE    CLOUDY    53  47  79 W6        29.89S
MUNISING         N/A     53  53 100 N6        29.93R
$$
MIZ004>006-011>014-085-250400-
CENTRAL UPPER MICHIGAN

CITY           SKY/WX    TMP DP  RH WIND       PRES   REMARKS
MANISTIQUE     RAIN      54  51  90 N3        29.93R
ESCANABA       CLOUDY    55  54  96 W3        29.94R
MENOMINEE      LGT RAIN  54  52  93 VRB3      29.95F
SAWYER-GWINN   RAIN      53  50  92 CALM      29.94R
$$
MIZ001>003-009>011-084-250400-
WESTERN UPPER MICHIGAN

CITY           SKY/WX    TMP DP  RH WIND       PRES   REMARKS
IRON MOUNTAIN  LGT RAIN  53  50  89 NW6       29.93R
HOUGHTON       FOG       51  50  96 NW3       29.92S VSB 3/4
COPPER HARBOR    N/A     51  50  96 CALM      29.92R
IRONWOOD       LGT RAIN  54  52  93 W6        29.96R
$$

ABBREVIATIONS USED IN REMARKS
   TC - TEMPERATURE IN CELSIUS
  WCI - WIND CHILL INDEX
   HX - HEAT INDEX
  VSB - VISIBILITY





USA.gov is the U.S. government's official web portal to all federal, state and local government web resources and services.